Flag for Germany Weather past 2 weeks in Bretten, Baden-Württemberg, Germany

Now
36 °F

Partly sunny.


Feels Like: 33 °F
Forecast: 30 / 36 °F
Wind: 3 mph from North

Location: Baden Wurttemberg - Neuostheim

Current Time: Feb 1, 2015 at 9:52:48 AM

Latest Report: Feb 1, 2015 at 9:20 AM


Visibility: N/A

Pressure: 29.24 "Hg

Humidity: 81%

Dew point: 30 °F

Location of BrettenLocation

Historic Weather in Bretten — Graph

°F

Bretten temperature yesterday

Maximum temperature yesterday: 39 °F (at 2:50 PM)
Minimum temperature yesterday: 34 °F (at 7:20 AM)
Average temperature yesterday: 36 °F

Past Weeks' High & Low Weather Summary

 TemperatureHumidityPressure
High43 °F (Jan 17, 1:20 PM)100% (Jan 17, 9:20 AM)30.45 "Hg (Jan 17, 9:20 AM)
Low28 °F (Jan 19, 5:20 AM)66% (Jan 27, 12:20 PM)28.82 "Hg (Jan 30, 5:20 AM)
Average36 °F86%29.83 "Hg
* Reported Jan 17 8:20 AM — Feb 1 8:50 AM, Bretten, Weather by CustomWeather, © 2014

Note: Actual official high and low records may vary slightly from our data, if they occured in-between our weather recording intervals... More about our weather records

Advertising

Bretten weather history for previous 24 hours

 ConditionsComfort  
Time TempWeatherWind HumidityBarometerVisibility
8:50 AM
Feb 1
34 °FPartly sunny.6 mph87%29.24 "HgN/A
8:20 AM34 °FMostly cloudy.7 mph87%29.24 "HgN/A
7:50 AM34 °FPartly cloudy.7 mph93%29.21 "HgN/A
7:20 AM34 °FLight snow. Overcast.6 mph93%29.21 "HgN/A
9:50 PM
Jan 31
36 °FPassing clouds.3 mph87%29.18 "HgN/A
9:20 PM36 °FPassing clouds.3 mph87%29.15 "HgN/A
8:50 PM36 °FPassing clouds.5 mph93%29.15 "HgN/A
8:20 PM36 °FPassing clouds.6 mph93%29.15 "HgN/A
7:50 PM36 °FOvercast.6 mph93%29.15 "HgN/A
7:20 PM36 °FPassing clouds.7 mph93%29.12 "HgN/A
6:50 PM37 °FLow clouds.9 mph87%29.12 "HgN/A
6:20 PM36 °FPassing clouds.3 mph93%29.12 "Hg6 mi
5:50 PM37 °FLight rain. Low clouds.6 mph87%29.09 "Hg4 mi
5:20 PM37 °FMostly cloudy.5 mph87%29.09 "HgN/A
4:50 PM37 °FMore clouds than sun.8 mph81%29.09 "HgN/A
4:20 PM37 °FPartly sunny.8 mph81%29.09 "HgN/A
3:50 PM39 °FOvercast.8 mph75%29.06 "HgN/A
3:20 PM39 °FOvercast.7 mph75%29.06 "HgN/A
2:50 PM39 °FMore clouds than sun.5 mph75%29.06 "HgN/A
2:20 PM37 °FMore clouds than sun.6 mph81%29.06 "HgN/A
1:50 PM37 °FMore clouds than sun.6 mph81%29.09 "HgN/A
1:20 PM37 °FMore clouds than sun.6 mph81%29.09 "HgN/A
12:50 PM37 °FMostly cloudy.5 mph81%29.09 "HgN/A
12:20 PM37 °FCloudy.6 mph81%29.09 "HgN/A
11:50 AM37 °FMostly cloudy.5 mph81%29.09 "HgN/A
11:20 AM36 °FMostly cloudy.7 mph87%29.06 "HgN/A
10:50 AM36 °FMostly cloudy.6 mph87%29.06 "HgN/A
10:20 AM36 °FMostly cloudy.6 mph81%29.06 "HgN/A
9:50 AM36 °FMostly cloudy.5 mph81%29.06 "HgN/A
9:20 AM34 °FPartly sunny.7 mph87%29.06 "HgN/A
Weather by CustomWeather, © 2014

See weather overviewHow to use our weather pages